Wind_Speed
48 49 47 45 44 44 44 42 44 44 43 41 40 25 27 43 38 33 36 39 33 35 38 34 36 34 34 35 30 29 30 31 31 30 29 27 25 24 22 20 19 17 18
54 54 54 53 51 50 50 48 49 48 48 44 39 37 30 24 32 38 41 34 35 36 35 32 33 38 38 34 29 30 29 27 28 32 31 31 29 29 27 26 24 23 21
59 60 60 59 58 57 56 55 53 54 52 48 41 40 38 37 33 32 39 32 29 38 46 41 37 32 33 35 31 29 30 30 32 33 33 34 32 31 32 30 29 29 28
61 61 63 64 64 63 62 61 60 59 57 55 48 46 46 45 44 34 33 35 35 36 46 46 42 35 34 30 31 32 29 28 28 31 31 33 33 33 33 35 35 34 33
67 66 65 67 70 68 67 67 66 65 63 59 56 51 49 46 43 39 37 34 31 31 34 40 40 36 34 34 34 34 30 30 31 29 30 31 31 33 34 34 36 36 36
68 71 72 71 71 73 73 73 72 71 69 64 61 58 54 49 47 45 43 40 38 34 30 20 29 39 39 37 35 35 34 36 34 35 34 36 38 39 39 38 37 38 40
65 69 74 77 77 76 77 77 78 77 75 72 67 63 59 56 51 49 48 43 45 38 36 39 26 31 36 36 37 40 40 38 37 40 39 39 38 40 42 44 46 44 40
58 60 67 76 80 81 81 81 80 80 80 78 75 69 66 63 58 56 51 53 33 36 42 37 36 34 36 34 35 36 36 38 37 35 39 39 40 42 41 45 45 43 39
55 58 62 65 71 79 83 85 84 83 82 81 80 77 72 69 65 62 56 54 56 47 31 33 38 36 31 35 36 39 36 42 44 38 41 40 42 42 43 42 43 42 42
52 52 51 54 65 71 75 84 87 87 85 84 82 81 78 74 71 66 62 56 54 49 45 37 37 34 37 38 38 40 39 38 43 42 43 43 43 39 44 42 40 38 39
56 58 52 51 46 50 67 76 80 86 87 86 85 82 81 78 76 71 66 55 46 50 48 44 38 31 42 37 37 40 38 32 34 37 41 42 43 36 39 34 39 35 34
41 47 59 58 56 54 52 54 73 80 83 87 85 85 82 80 78 74 69 63 57 56 51 49 47 49 40 44 46 47 46 44 36 42 42 43 48 39 41 34 33 35 34
26 29 33 39 49 58 65 65 63 66 81 83 85 85 84 83 79 75 70 64 61 59 56 53 48 49 41 26 28 29 26 33 33 28 41 42 48 52 45 39 36 42 38
26 29 33 38 44 47 50 50 60 70 69 81 85 85 83 84 82 75 69 65 60 60 59 54 50 50 50 57 54 53 45 42 38 35 26 35 30 30 35 47 40 38 40
29 25 23 23 25 30 34 39 49 50 68 70 77 83 80 82 82 75 70 64 59 60 59 53 51 50 47 44 43 40 42 31 40 36 32 24 25 24 19 24 30 31 40
26 23 22 24 26 26 24 30 36 34 44 67 67 75 74 77 77 70 67 61 59 61 57 52 48 46 44 43 42 39 35 32 33 35 39 49 50 47 47 47 52 52 53
26 28 25 23 22 19 21 22 22 31 29 40 62 66 69 69 73 69 61 61 55 51 51 48 45 42 39 40 42 42 39 35 36 34 36 39 41 43 43 43 47 51 54
24 23 25 22 19 17 23 9 10 17 19 37 45 54 62 61 62 61 58 59 54 51 47 41 33 33 36 39 42 42 41 45 43 43 45 46 49 50 52 53 55 56 59
16 16 20 17 15 14 11 16 4 2 7 13 39 49 52 49 42 50 45 54 50 45 44 41 38 41 44 41 39 42 46 49 46 46 47 49 51 54 56 58 59 61 57
20 24 24 20 13 9 7 21 8 9 23 27 39 33 36 37 51 45 31 43 45 43 39 36 33 30 31 35 35 39 42 44 48 49 51 52 53 54 55 56 55 54 55
20 24 24 21 16 15 13 20 21 18 15 20 34 31 44 32 41 45 48 33 21 17 18 21 24 28 32 36 39 42 45 48 50 53 55 56 58 59 59 59 60 58 55
23 24 27 26 21 16 14 22 26 20 11 16 28 34 37 42 44 36 26 18 17 17 18 20 21 24 32 39 44 47 51 53 54 55 56 57 58 61 63 63 61 57 52
25 25 26 25 27 21 16 14 15 18 23 30 31 24 26 28 28 28 24 21 23 23 19 18 19 23 25 26 30 36 40 42 39 37 35 33 32 33 33 32 29 26 26
27 26 25 26 24 25 24 16 15 17 21 23 23 22 21 22 23 24 24 23 21 20 19 19 20 22 19 14 10 9 8 9 9 8 7 7 8 9 10 12 15 19 21
24 27 27 24 23 22 22 23 21 16 16 19 21 22 23 22 21 22 21 18 15 15 12 14 16 10 1 9 13 15 15 14 13 12 13 14 15 16 17 20 22 25 28
24 23 21 23 25 26 23 20 19 19 20 18 15 15 16 18 17 16 15 12 10 8 6 7 12 13 13 12 11 11 12 12 12 13 14 15 16 17 19 21 25 27 30
Wind_Direction
251 252 251 246 241 240 243 245 248 251 255 261 262 266 231 237 234 238 245 249 247 251 253 255 248 249 238 241 239 239 245 247 247 248 250 252 255 258 262 264 268 274 279
250 250 251 250 246 242 241 241 245 249 253 254 255 260 263 242 233 239 244 234 255 252 256 251 252 251 246 243 240 241 242 248 253 255 253 255 256 258 261 262 264 269 271
248 248 249 248 248 247 244 243 242 246 250 254 254 259 260 249 254 247 237 236 248 259 255 254 254 246 248 235 236 239 237 244 248 254 253 255 257 260 262 263 265 266 268
250 248 247 247 247 247 248 247 245 245 247 252 249 252 256 255 265 262 264 263 266 265 255 259 248 245 248 243 246 251 247 241 248 254 259 261 262 264 264 268 268 268 270
250 248 246 245 246 245 246 247 248 248 247 247 250 249 251 256 261 264 267 265 261 269 259 251 241 241 245 243 243 249 244 251 251 257 263 266 266 267 266 264 269 271 271
250 248 247 244 243 245 244 245 246 247 249 248 247 249 250 252 254 256 260 261 253 259 264 238 247 245 240 246 251 250 252 255 258 260 261 265 268 268 270 271 271 268 273
252 250 249 246 244 241 243 243 244 245 246 248 247 247 248 251 250 253 256 256 256 247 251 246 234 242 243 247 253 256 256 257 263 266 265 266 271 270 271 273 274 277 276
262 254 250 248 245 243 241 241 242 243 244 245 247 245 246 248 249 251 255 256 235 233 242 241 248 255 253 258 261 258 264 261 264 272 270 270 275 268 274 274 273 272 275
266 263 257 252 248 246 242 240 240 240 241 243 244 246 244 246 246 249 250 255 258 267 260 246 251 253 261 260 263 267 268 261 262 269 269 271 271 274 273 274 269 269 272
267 267 267 263 256 250 247 242 240 239 239 238 240 242 244 244 246 247 248 251 255 258 261 254 253 259 259 262 260 262 271 267 268 268 269 269 271 270 274 271 272 274 277
266 265 266 267 265 260 253 247 244 240 238 238 236 237 239 242 243 245 247 243 244 252 255 256 257 251 248 257 260 257 260 264 274 259 263 270 259 266 262 266 268 270 274
274 271 262 262 264 261 259 253 247 242 240 238 236 234 234 238 240 242 244 245 250 251 253 255 257 262 267 262 251 266 251 267 266 267 264 256 264 258 265 260 264 266 271
293 282 272 265 261 259 255 252 249 246 240 237 237 233 231 233 237 239 240 241 245 249 250 254 257 257 263 247 264 277 274 286 281 288 270 253 256 262 273 259 245 255 265
291 283 276 270 267 262 258 254 248 244 240 236 234 234 230 230 233 235 238 240 240 245 250 252 257 260 259 264 273 293 291 289 292 274 279 262 271 271 259 251 259 268 266
309 302 298 289 281 279 275 265 251 248 238 233 232 231 230 228 230 231 234 237 239 243 248 253 255 259 267 273 278 281 282 283 278 273 265 272 270 269 262 257 266 266 273
329 324 318 308 303 288 286 263 247 250 238 229 227 226 225 226 226 226 228 234 237 241 246 249 255 261 267 271 274 276 278 274 273 267 275 288 294 288 290 288 295 297 297
326 325 328 335 331 310 293 284 270 244 239 225 227 220 218 220 224 224 225 228 233 239 241 249 255 259 262 267 271 273 274 271 275 274 277 280 282 284 285 282 280 280 279
320 316 318 332 340 312 313 335 297 238 231 216 211 209 207 213 217 221 222 226 233 239 244 250 249 246 255 262 269 273 276 277 281 282 283 282 281 281 281 282 280 279 279
333 344 348 349 351 358 41 17 146 286 160 202 195 183 194 204 211 217 223 227 228 237 245 246 246 253 264 268 270 275 279 285 287 286 283 283 283 282 280 277 277 278 282
14 9 11 18 25 38 44 42 121 117 157 148 159 170 166 196 207 198 198 200 216 223 235 243 253 263 268 274 274 273 277 279 283 282 281 277 277 276 277 278 281 284 286
12 26 29 31 45 59 62 51 77 101 136 131 152 171 189 185 180 191 202 210 192 209 231 250 258 262 267 271 273 273 274 275 277 277 273 273 275 278 280 281 283 286 288
24 26 40 41 51 66 83 96 93 99 153 173 164 170 184 192 190 193 192 185 199 221 242 252 264 276 282 281 275 271 270 269 269 271 272 275 277 280 280 282 285 285 284
37 36 35 45 51 60 88 107 103 103 96 145 161 142 138 147 150 168 184 203 220 223 232 242 253 272 292 299 283 276 276 278 282 283 283 282 286 287 288 289 292 294 298
46 40 38 38 43 56 68 98 119 129 132 134 156 152 159 170 180 186 193 197 204 215 225 236 256 274 289 309 347 9 19 22 18 13 4 358 360 352 350 339 327 319 317
52 54 52 49 46 46 53 69 92 131 152 158 169 180 189 192 192 195 197 195 210 204 234 248 279 283 78 71 67 64 58 49 39 23 12 4 356 350 340 332 325 321 320
46 51 56 60 62 65 65 68 72 81 96 114 142 161 179 185 179 184 191 191 196 212 220 153 108 92 81 69 58 44 34 21 9 358 351 343 337 331 327 326 324 320 319
Height
5779 5781 5785 5789 5791 5793 5795 5795 5794 5795 5797 5800 5799 5785 5791 5802 5809 5817 5820 5820 5821 5824 5828 5831 5834 5835 5838 5838 5841 5844 5846 5848 5849 5849 5850 5851 5852 5854 5855 5855 5855 5855 5854
5767 5770 5773 5777 5780 5784 5786 5789 5788 5788 5789 5794 5798 5797 5798 5789 5798 5804 5809 5813 5817 5818 5819 5823 5826 5829 5831 5833 5835 5838 5840 5841 5844 5844 5846 5846 5848 5848 5849 5850 5850 5850 5850
5754 5757 5760 5764 5767 5771 5775 5777 5780 5780 5782 5785 5789 5791 5794 5785 5796 5798 5798 5805 5808 5812 5813 5814 5819 5821 5824 5827 5830 5831 5834 5835 5838 5838 5840 5839 5841 5843 5842 5843 5845 5845 5845
5739 5743 5746 5749 5753 5758 5761 5765 5767 5769 5773 5775 5783 5783 5786 5788 5789 5792 5796 5799 5801 5804 5805 5806 5811 5814 5818 5821 5823 5824 5826 5829 5831 5831 5833 5833 5835 5836 5838 5837 5838 5839 5839
5722 5725 5730 5733 5737 5743 5747 5750 5754 5756 5760 5766 5769 5775 5779 5781 5782 5784 5788 5794 5796 5798 5798 5799 5801 5807 5810 5815 5816 5818 5820 5822 5824 5826 5826 5828 5828 5829 5830 5832 5831 5832 5831
5702 5707 5710 5715 5721 5724 5731 5735 5738 5743 5745 5751 5758 5762 5767 5772 5775 5779 5779 5783 5792 5795 5794 5794 5796 5800 5803 5805 5809 5811 5814 5816 5817 5820 5821 5821 5821 5821 5823 5823 5824 5826 5823
5686 5689 5690 5695 5701 5708 5712 5718 5723 5727 5733 5736 5742 5750 5755 5761 5767 5769 5770 5774 5779 5785 5788 5788 5789 5792 5796 5798 5800 5804 5807 5809 5811 5811 5812 5813 5813 5813 5812 5812 5814 5813 5815
5664 5668 5669 5672 5679 5687 5693 5698 5705 5710 5716 5722 5728 5735 5742 5749 5757 5759 5763 5767 5764 5773 5772 5779 5784 5791 5788 5790 5792 5794 5797 5800 5801 5802 5803 5803 5804 5803 5803 5803 5803 5804 5804
5648 5648 5650 5654 5659 5662 5668 5676 5684 5691 5698 5705 5712 5719 5728 5735 5743 5748 5753 5757 5761 5764 5768 5771 5776 5781 5778 5785 5785 5786 5789 5789 5790 5792 5794 5796 5795 5794 5795 5793 5793 5794 5795
5636 5634 5635 5638 5639 5642 5645 5653 5661 5669 5677 5685 5694 5703 5710 5721 5728 5736 5743 5748 5753 5757 5763 5766 5769 5773 5774 5775 5775 5776 5778 5779 5779 5782 5785 5785 5787 5786 5786 5786 5785 5785 5786
5622 5620 5622 5620 5622 5622 5625 5631 5637 5645 5654 5663 5675 5685 5694 5704 5713 5721 5728 5736 5741 5746 5752 5756 5760 5760 5758 5758 5764 5765 5769 5770 5769 5768 5774 5775 5776 5777 5778 5777 5778 5778 5778
5609 5606 5605 5606 5605 5606 5607 5609 5614 5622 5630 5641 5651 5665 5677 5687 5697 5707 5715 5724 5731 5737 5742 5747 5750 5746 5751 5754 5758 5757 5759 5763 5763 5764 5765 5766 5768 5769 5771 5770 5771 5772 5772
5600 5595 5592 5590 5589 5587 5587 5589 5593 5598 5607 5618 5629 5643 5658 5670 5681 5693 5703 5713 5722 5727 5731 5736 5740 5743 5748 5746 5749 5753 5753 5753 5754 5755 5754 5756 5759 5759 5760 5761 5758 5763 5762
5591 5586 5582 5579 5575 5572 5570 5568 5570 5575 5583 5594 5608 5621 5638 5653 5666 5679 5690 5700 5710 5715 5719 5726 5730 5734 5739 5740 5741 5742 5745 5748 5750 5750 5749 5750 5750 5749 5749 5751 5753 5753 5753
5585 5579 5574 5570 5565 5560 5556 5551 5552 5553 5560 5571 5585 5602 5619 5635 5650 5666 5678 5689 5698 5705 5709 5716 5722 5727 5730 5732 5734 5737 5738 5739 5742 5743 5743 5744 5744 5744 5745 5745 5744 5742 5742
5581 5575 5569 5562 5555 5549 5544 5538 5537 5538 5538 5551 5565 5582 5602 5619 5636 5653 5666 5679 5687 5694 5701 5706 5714 5719 5721 5723 5726 5728 5729 5732 5734 5735 5737 5737 5736 5737 5737 5737 5735 5733 5730
5577 5570 5564 5558 5550 5542 5536 5530 5527 5528 5530 5536 5549 5565 5587 5605 5624 5641 5656 5668 5676 5685 5690 5698 5708 5710 5711 5714 5716 5718 5721 5723 5726 5728 5727 5727 5727 5727 5726 5725 5724 5721 5718
5575 5568 5560 5554 5548 5541 5533 5529 5524 5522 5521 5526 5537 5555 5576 5598 5617 5633 5648 5660 5668 5677 5686 5693 5699 5700 5702 5705 5707 5709 5711 5713 5717 5717 5717 5717 5716 5715 5713 5712 5711 5708 5704
5575 5568 5558 5551 5546 5542 5536 5530 5526 5522 5519 5522 5534 5555 5575 5596 5613 5628 5642 5651 5662 5671 5678 5685 5689 5693 5695 5698 5699 5699 5700 5703 5703 5703 5702 5701 5701 5701 5698 5698 5694 5691 5689
5576 5569 5559 5552 5547 5544 5542 5537 5534 5534 5533 5539 5548 5561 5579 5593 5608 5623 5638 5643 5653 5664 5672 5678 5682 5685 5687 5688 5689 5689 5690 5690 5691 5689 5686 5685 5684 5683 5682 5681 5679 5679 5677
5579 5572 5564 5557 5552 5549 5548 5545 5541 5543 5545 5549 5560 5573 5583 5591 5609 5620 5633 5641 5650 5658 5666 5672 5675 5677 5677 5677 5677 5678 5677 5677 5676 5675 5672 5670 5670 5669 5668 5667 5666 5665 5663
5583 5578 5571 5564 5560 5557 5556 5555 5553 5553 5556 5561 5570 5579 5588 5593 5607 5620 5629 5639 5647 5655 5660 5664 5667 5668 5667 5664 5662 5662 5661 5661 5660 5660 5659 5659 5658 5656 5654 5653 5652 5650 5649
5591 5585 5580 5575 5569 5566 5564 5564 5565 5566 5566 5568 5579 5586 5591 5601 5612 5623 5630 5637 5645 5650 5655 5659 5661 5661 5659 5653 5648 5647 5648 5649 5649 5649 5648 5645 5645 5644 5642 5642 5641 5639 5639
5599 5594 5589 5584 5580 5577 5574 5573 5573 5576 5579 5583 5589 5592 5598 5605 5612 5619 5627 5634 5640 5645 5650 5653 5655 5654 5652 5650 5646 5644 5643 5643 5643 5643 5643 5642 5640 5639 5638 5637 5636 5635 5633
5608 5603 5599 5595 5591 5587 5584 5583 5583 5584 5588 5591 5595 5600 5605 5610 5615 5621 5627 5632 5637 5641 5645 5647 5648 5648 5648 5647 5645 5644 5644 5643 5643 5643 5642 5640 5638 5636 5635 5634 5632 5629 5626
5615 5612 5609 5605 5602 5599 5596 5594 5592 5592 5594 5596 5599 5603 5607 5611 5615 5621 5626 5629 5633 5637 5641 5644 5646 5646 5645 5645 5644 5645 5643 5643 5642 5642 5640 5638 5636 5634 5631 5629 5626 5623 5619